C/2017 S3 ( PanSTARRS )

Japanese version
Home page
Updated on November 23, 2017

---------------------------------------------------------------------

* Profile

Discovery Date September 23, 2017
Magnitude 21.5 mag
Discoverer Pan-STARRS 1 telescope (Haleakala)

* Pictures

* Orbital Elements

Epoch 2018 Aug. 30.0 TT = JDT 2458360.5
T 2018 Aug. 15.91729 TT                                 MPCW
q   0.2084485            (2000.0)            P               Q
z  -0.0004536      Peri.  255.89239     +0.21711500     -0.96400627
 +/-0.0000554      Node   171.06012     +0.20820231     +0.19933494
e   1.0000946      Incl.   99.03519     -0.95368384     -0.17594743
From 39 observations 2017 Aug. 17-Oct. 14, mean residual 0".4.

* Finding Charts

* Magnitudes Graph

        m1 = 10.0 + 5 log d + 10.0 log r

---------------------------------------------------------------------

The orbital elements are published on M.P.E.C. 2017-V13.
The charts are made with StellaNavigator Ver.10 (AstroArts).
The magnitudes graphs are made with Comet for Windows.

---------------------------------------------------------------------

Copyright(C) Seiichi Yoshida (comet@aerith.net). All rights reserved.